Home   Weather   San Francisco   Past weeks

Flag for USA Past Weather in San Francisco, California, USA — Yesterday and Last 2 Weeks

Now
54 °F

Passing clouds.


Feels Like: 52 °F
Forecast: 55 / 62 °F
Wind: 8 mph from Northwest

Location: San Francisco International Airport

Current Time: Apr 24, 2017 at 6:27:41 am

Latest Report: Apr 24, 2017 at 5:56 am


Visibility: 10 mi

Pressure: 30.05 "Hg

Humidity: 74%

Dew Point: 46 °F

Location of San FranciscoLocation

Past Weather in San Francisco — Graph

°F

San Francisco Temperature Yesterday

Maximum temperature yesterday: 64 °F (at 1:56 pm)
Minimum temperature yesterday: 53 °F (at 5:56 am)
Average temperature yesterday: 57 °F

High & Low Weather Summary for the Past Weeks

 TemperatureHumidityPressure
High73 °F (Apr 21, 1:56 pm)97% (Apr 17, 5:56 am)30.32 "Hg (Apr 17, 5:56 am)
Low46 °F (Apr 9, 4:56 am)30% (Apr 21, 4:56 pm)29.89 "Hg (Apr 12, 11:56 pm)
Average57 °F70%30.08 "Hg
* Reported Apr 9 4:56 am — Apr 24 4:56 am, San Francisco, Weather by CustomWeather, © 2017

Note: Actual official high and low records may vary slightly from our data, if they occured in-between our weather recording intervals... More about our weather records

Advertising

San Francisco Weather History for the Previous 24 Hours

Scroll right to see more
 ConditionsComfort  
Time TempWeatherWind HumidityBarometerVisibility
4:56 am
Mon, Apr 24
54 °FPassing clouds.9 mph74%30.05 "Hg10 mi
3:56 am54 °FPassing clouds.13 mph74%30.03 "Hg10 mi
2:56 am53 °FPartly cloudy.15 mph77%30.02 "Hg10 mi
1:56 am53 °FPassing clouds.21 mph77%30.03 "Hg10 mi
12:56 am54 °FPassing clouds.26 mph74%30.03 "Hg10 mi
11:56 pm
Sun, Apr 23
54 °FPassing clouds.21 mph74%30.02 "Hg10 mi
10:56 pm54 °FPassing clouds.25 mph74%30.03 "Hg10 mi
9:56 pm55 °FPartly cloudy.31 mph74%30.03 "Hg10 mi
8:56 pm55 °FPassing clouds.28 mph74%30.01 "Hg10 mi
7:56 pm56 °FPassing clouds.25 mph72%30.00 "Hg10 mi
6:56 pm57 °FBroken clouds.16 mph69%30.01 "Hg10 mi
5:56 pm59 °FPartly sunny.18 mph64%30.03 "Hg10 mi
4:56 pm60 °FScattered clouds.23 mph60%30.03 "Hg10 mi
3:56 pm61 °FBroken clouds.28 mph62%30.03 "Hg10 mi
2:56 pm62 °FScattered clouds.26 mph58%30.05 "Hg10 mi
1:56 pm64 °FScattered clouds.23 mph54%30.04 "Hg10 mi
12:56 pm63 °FPassing clouds.22 mph60%30.04 "Hg10 mi
11:56 am62 °FPassing clouds.24 mph60%30.05 "Hg10 mi
10:56 am61 °FPassing clouds.17 mph62%30.03 "Hg10 mi
9:56 am60 °FPassing clouds.15 mph60%30.02 "Hg10 mi
8:56 am57 °FPassing clouds.14 mph67%30.01 "Hg10 mi
7:56 am55 °FPassing clouds.16 mph74%30.01 "Hg10 mi
6:56 am53 °FScattered clouds.15 mph80%30.01 "Hg10 mi
Weather by CustomWeather, © 2017

See weather overviewHow to use our weather pages